| time (UTC) | temp C | wind direction | speed KPH | gust KPH | rain 1hr cm | rain 24hr cm | rain mn cm | humidity % | barometer mb |
| 20260506162127 | 14 | 351 | 1.6 | 4.8 | 0.00 | 0.00 | 0.00 | 90 | 1017.2 |
| 20260506161626 | 14 | 338 | 1.6 | 4.8 | 0.00 | 0.00 | 0.00 | 91 | 1017.2 |
| 20260506160125 | 13 | 51 | 0.0 | 4.8 | 0.00 | 0.00 | 0.00 | 93 | 1017.2 |
| 20260506155114 | 12 | 223 | 0.0 | 1.6 | 0.00 | 0.00 | 0.00 | 94 | 1017.0 |
| 20260506154602 | 12 | 106 | 0.0 | 1.6 | 0.00 | 0.00 | 0.00 | 95 | 1017.0 |
| 20260506153059 | 12 | 106 | 0.0 | 4.8 | 0.00 | 0.00 | 0.00 | 96 | 1017.0 |
| 20260506152100 | 12 | 54 | 0.0 | 3.2 | 0.00 | 0.00 | 0.00 | 97 | 1016.9 |
| 20260506151055 | 11 | 5 | 0.0 | 1.6 | 0.00 | 0.00 | 0.00 | 97 | 1016.8 |
| 20260506150038 | 11 | 215 | 0.0 | 3.2 | 0.00 | 0.00 | 0.00 | 98 | 1016.7 |
| 20260506145038 | 11 | 123 | 0.0 | 3.2 | 0.00 | 0.00 | 0.00 | 99 | 1016.6 |
| 20260506144040 | 11 | 76 | 0.0 | 3.2 | 0.00 | 0.00 | 0.00 | 100 | 1016.6 |
| 20260506143034 | 11 | 140 | 0.0 | 1.6 | 0.00 | 0.00 | 0.00 | 100 | 1016.4 |
| 20260506142034 | 10 | 170 | 0.0 | 1.6 | 0.00 | 0.00 | 0.00 | 100 | 1016.4 |
| 20260506141516 | 10 | 107 | 0.0 | 3.2 | 0.00 | 0.00 | 0.00 | 100 | 1016.3 |
| 20260506140014 | 10 | 170 | 0.0 | 3.2 | 0.00 | 0.00 | 0.00 | 100 | 1016.2 |
| 20260506135013 | 10 | 205 | 0.0 | 0.0 | 0.00 | 0.00 | 0.00 | 100 | 1016.1 |
| 20260506134440 | 10 | 205 | 0.0 | 1.6 | 0.00 | 0.03 | 0.00 | 100 | 1016.1 |
| 20260506132935 | 10 | 140 | 0.0 | 1.6 | 0.00 | 0.03 | 0.00 | 100 | 1016.0 |
| 20260506131858 | 10 | 77 | 0.0 | 3.2 | 0.00 | 0.03 | 0.00 | 100 | 1015.9 |
| 20260506130855 | 10 | 48 | 0.0 | 1.6 | 0.00 | 0.03 | 0.00 | 100 | 1015.9 |
| 20260506125842 | 10 | 49 | 0.0 | 1.6 | 0.00 | 0.03 | 0.00 | 100 | 1015.8 |
| 20260506124836 | 10 | 48 | 0.0 | 3.2 | 0.00 | 0.03 | 0.00 | 99 | 1015.8 |
| 20260506123837 | 10 | 109 | 0.0 | 1.6 | 0.00 | 0.03 | 0.00 | 99 | 1015.7 |
| 20260506121754 | 10 | 109 | 0.0 | 3.2 | 0.00 | 0.03 | 0.00 | 99 | 1015.6 |
| 20260506120743 | 10 | 107 | 0.0 | 3.2 | 0.00 | 0.03 | 0.00 | 99 | 1015.5 |
| 20260506120243 | 10 | 107 | 0.0 | 3.2 | 0.00 | 0.03 | 0.00 | 99 | 1015.5 |
| 20260506114742 | 10 | 42 | 0.0 | 4.8 | 0.00 | 0.03 | 0.00 | 99 | 1015.3 |
| 20260506113740 | 10 | 212 | 0.0 | 6.4 | 0.00 | 0.03 | 0.00 | 99 | 1015.3 |
| 20260506112732 | 10 | 153 | 0.0 | 6.4 | 0.00 | 0.03 | 0.00 | 99 | 1015.2 |
| 20260506111727 | 10 | 66 | 1.6 | 6.4 | 0.00 | 0.03 | 0.00 | 99 | 1015.2 |
| 20260506110721 | 10 | 117 | 1.6 | 4.8 | 0.00 | 0.03 | 0.00 | 98 | 1015.2 |
| 20260506110208 | 10 | 192 | 0.0 | 3.2 | 0.00 | 0.03 | 0.00 | 98 | 1015.1 |
| 20260506104656 | 10 | 220 | 0.0 | 4.8 | 0.00 | 0.03 | 0.00 | 98 | 1014.9 |
| 20260506102629 | 10 | 211 | 0.0 | 4.8 | 0.00 | 0.03 | 0.00 | 98 | 1014.7 |
| 20260506101621 | 10 | 141 | 0.0 | 1.6 | 0.00 | 0.03 | 0.00 | 98 | 1014.8 |
| 20260506100619 | 10 | 207 | 0.0 | 0.0 | 0.00 | 0.03 | 0.00 | 98 | 1014.9 |
| 20260506095553 | 10 | 207 | 0.0 | 0.0 | 0.00 | 0.03 | 0.00 | 98 | 1014.9 |
| 20260506094551 | 10 | 207 | 0.0 | 0.0 | 0.00 | 0.03 | 0.00 | 97 | 1014.9 |
| 20260506094034 | 10 | 207 | 0.0 | 0.0 | 0.00 | 0.03 | 0.00 | 97 | 1014.8 |
| 20260506093036 | 10 | 207 | 0.0 | 1.6 | 0.00 | 0.03 | 0.00 | 97 | 1014.8 |
| 20260506091522 | 10 | 207 | 0.0 | 0.0 | 0.00 | 0.03 | 0.00 | 97 | 1014.8 |
| 20260506090501 | 10 | 207 | 0.0 | 3.2 | 0.00 | 0.03 | 0.00 | 97 | 1014.8 |
| 20260506085952 | 10 | 223 | 0.0 | 1.6 | 0.00 | 0.03 | 0.00 | 97 | 1014.9 |
| 20260506084421 | 10 | 223 | 0.0 | 1.6 | 0.00 | 0.03 | 0.00 | 97 | 1014.9 |
| 20260506083418 | 10 | 223 | 0.0 | 1.6 | 0.00 | 0.05 | 0.00 | 97 | 1014.9 |
| 20260506082411 | 10 | 242 | 0.0 | 3.2 | 0.00 | 0.08 | 0.00 | 97 | 1014.9 |
| 20260506081355 | 10 | 190 | 0.0 | 1.6 | 0.00 | 0.13 | 0.00 | 97 | 1014.8 |
| 20260506080353 | 10 | 219 | 0.0 | 1.6 | 0.00 | 0.15 | 0.00 | 97 | 1014.8 |
| 20260506073337 | 10 | 257 | 0.0 | 3.2 | 0.00 | 0.18 | 0.00 | 97 | 1014.7 |
| 20260506072339 | 10 | 24 | 0.0 | 1.6 | 0.00 | 0.18 | 0.00 | 97 | 1014.7 |
| 20260506071337 | 10 | 25 | 0.0 | 6.4 | 0.00 | 0.23 | 0.00 | 97 | 1014.5 |
| 20260506070336 | 10 | 207 | 0.0 | 1.6 | 0.00 | 0.23 | 0.00 | 97 | 1014.3 |
| 20260506062236 | 10 | 212 | 0.0 | 1.6 | 0.00 | 0.28 | 0.23 | 98 | 1014.5 |
| 20260506061226 | 10 | 212 | 0.0 | 1.6 | 0.00 | 0.33 | 0.23 | 98 | 1014.2 |
| 20260506060158 | 10 | 212 | 0.0 | 3.2 | 0.00 | 0.36 | 0.23 | 98 | 1014.1 |
| 20260506051122 | 9 | 198 | 0.0 | 1.6 | 0.00 | 0.41 | 0.23 | 99 | 1013.9 |
| 20260506050614 | 9 | 198 | 0.0 | 0.0 | 0.00 | 0.43 | 0.23 | 98 | 1013.9 |
| 20260506045105 | 9 | 198 | 0.0 | 0.0 | 0.00 | 0.46 | 0.23 | 98 | 1013.9 |
| 20260506044540 | 9 | 198 | 0.0 | 0.0 | 0.00 | 0.51 | 0.23 | 97 | 1013.8 |
| 20260506043037 | 9 | 198 | 0.0 | 0.0 | 0.00 | 0.58 | 0.23 | 97 | 1013.6 |
| 20260506042032 | 10 | 198 | 0.0 | 0.0 | 0.00 | 0.64 | 0.23 | 97 | 1013.5 |
| 20260506041032 | 10 | 198 | 0.0 | 1.6 | 0.00 | 0.69 | 0.23 | 97 | 1013.2 |
| 20260506040031 | 10 | 279 | 0.0 | 1.6 | 0.00 | 0.71 | 0.23 | 96 | 1013.2 |
| 20260506035013 | 10 | 205 | 0.0 | 4.8 | 0.00 | 0.71 | 0.23 | 95 | 1013.1 |
| 20260506034013 | 10 | 231 | 0.0 | 3.2 | 0.00 | 0.74 | 0.23 | 95 | 1012.9 |
| 20260506033009 | 10 | 220 | 0.0 | 3.2 | 0.00 | 0.74 | 0.23 | 94 | 1012.8 |
| 20260506031956 | 11 | 217 | 0.0 | 6.4 | 0.00 | 0.74 | 0.23 | 93 | 1012.8 |
| 20260506031436 | 11 | 228 | 1.6 | 3.2 | 0.00 | 0.79 | 0.23 | 92 | 1012.6 |
| 20260506025928 | 11 | 204 | 1.6 | 8.0 | 0.00 | 0.79 | 0.23 | 91 | 1012.5 |
| 20260506024925 | 12 | 130 | 0.0 | 1.6 | 0.00 | 0.79 | 0.23 | 91 | 1012.6 |
| 20260506023908 | 12 | 131 | 0.0 | 1.6 | 0.00 | 0.84 | 0.23 | 90 | 1012.5 |
| 20260506022858 | 12 | 131 | 0.0 | 3.2 | 0.00 | 0.89 | 0.23 | 90 | 1012.4 |
| 20260506021855 | 12 | 202 | 0.0 | 8.0 | 0.00 | 0.89 | 0.23 | 90 | 1012.3 |
| 20260506020845 | 12 | 238 | 1.6 | 8.0 | 0.00 | 0.91 | 0.23 | 90 | 1012.1 |
| 20260506015842 | 12 | 211 | 0.0 | 6.4 | 0.00 | 0.94 | 0.23 | 89 | 1012.2 |
| 20260506015342 | 12 | 198 | 0.0 | 4.8 | 0.00 | 0.97 | 0.23 | 90 | 1012.3 |
| 20260506013841 | 12 | 323 | 0.0 | 4.8 | 0.00 | 0.97 | 0.23 | 90 | 1012.2 |
| 20260506012817 | 12 | 240 | 0.0 | 4.8 | 0.00 | 0.99 | 0.23 | 90 | 1012.4 |
| 20260506011811 | 12 | 257 | 1.6 | 8.0 | 0.00 | 0.99 | 0.23 | 90 | 1012.2 |
| 20260506010810 | 12 | 52 | 1.6 | 8.0 | 0.00 | 0.99 | 0.23 | 90 | 1012.3 |
| 20260506005810 | 13 | 219 | 1.6 | 6.4 | 0.00 | 1.02 | 0.23 | 89 | 1012.2 |
| 20260506004811 | 13 | 214 | 1.6 | 8.0 | 0.00 | 1.04 | 0.23 | 89 | 1012.1 |
| 20260506003806 | 13 | 236 | 1.6 | 8.0 | 0.00 | 1.09 | 0.23 | 90 | 1012.2 |
| 20260506002806 | 13 | 252 | 0.0 | 6.4 | 0.00 | 1.12 | 0.23 | 89 | 1012.2 |
| 20260506002306 | 13 | 219 | 1.6 | 9.7 | 0.00 | 1.17 | 0.23 | 89 | 1012.1 |
| 20260506000801 | 13 | 194 | 1.6 | 8.0 | 0.00 | 1.22 | 0.23 | 87 | 1012.1 |
| 20260505235802 | 14 | 230 | 1.6 | 9.7 | 0.00 | 1.24 | 0.23 | 87 | 1012.0 |
| 20260505233753 | 14 | 238 | 3.2 | 9.7 | 0.00 | 1.27 | 0.23 | 86 | 1012.1 |
| 20260505232745 | 14 | 236 | 3.2 | 14.5 | 0.00 | 1.30 | 0.23 | 86 | 1012.2 |
| 20260505231739 | 15 | 218 | 0.0 | 6.4 | 0.00 | 1.30 | 0.23 | 83 | 1012.1 |
| 20260505230740 | 15 | 196 | 3.2 | 14.5 | 0.00 | 1.32 | 0.23 | 85 | 1012.1 |
| 20260505225739 | 15 | 193 | 4.8 | 11.3 | 0.00 | 1.32 | 0.23 | 83 | 1012.1 |
| 20260505224733 | 15 | 153 | 3.2 | 17.7 | 0.00 | 1.35 | 0.23 | 85 | 1012.1 |
| 20260505223729 | 15 | 202 | 4.8 | 14.5 | 0.00 | 1.35 | 0.23 | 87 | 1012.0 |
| 20260505222730 | 15 | 198 | 3.2 | 14.5 | 0.00 | 1.35 | 0.23 | 86 | 1012.2 |
| 20260505221731 | 15 | 239 | 1.6 | 9.7 | 0.00 | 1.35 | 0.23 | 84 | 1012.3 |
| 20260505220715 | 15 | 199 | 3.2 | 11.3 | 0.00 | 1.37 | 0.23 | 83 | 1012.2 |
| 20260505215705 | 16 | 203 | 3.2 | 9.7 | 0.00 | 1.37 | 0.23 | 82 | 1012.3 |
| 20260505214701 | 16 | 202 | 4.8 | 11.3 | 0.00 | 1.37 | 0.23 | 82 | 1012.3 |
| 20260505214202 | 17 | 246 | 4.8 | 16.1 | 0.00 | 1.37 | 0.23 | 82 | 1012.3 |
| 20260505211659 | 15 | 225 | 3.2 | 16.1 | 0.00 | 1.37 | 0.23 | 85 | 1012.5 |
| 20260505210658 | 16 | 252 | 1.6 | 9.7 | 0.00 | 1.37 | 0.23 | 85 | 1012.5 |
| 20260505205653 | 15 | 225 | 1.6 | 6.4 | 0.00 | 1.37 | 0.23 | 88 | 1012.5 |
| 20260505204649 | 15 | 194 | 1.6 | 17.7 | 0.00 | 1.37 | 0.23 | 92 | 1012.5 |
| 20260505203649 | 15 | 145 | 0.0 | 4.8 | 0.00 | 1.37 | 0.23 | 98 | 1012.4 |
| 20260505202649 | 14 | 221 | 1.6 | 8.0 | 0.00 | 1.37 | 0.23 | 99 | 1012.5 |
| 20260505201643 | 13 | 109 | 1.6 | 11.3 | 0.00 | 1.37 | 0.23 | 99 | 1012.5 |
| 20260505200639 | 13 | 100 | 1.6 | 9.7 | 0.00 | 1.37 | 0.23 | 99 | 1012.6 |
| 20260505195641 | 13 | 140 | 1.6 | 6.4 | 0.00 | 1.37 | 0.23 | 100 | 1012.6 |
| 20260505194635 | 12 | 234 | 1.6 | 8.0 | 0.00 | 1.37 | 0.23 | 99 | 1012.6 |
| 20260505193635 | 12 | 217 | 1.6 | 14.5 | 0.00 | 1.37 | 0.23 | 99 | 1012.7 |
| 20260505192636 | 12 | 121 | 1.6 | 8.0 | 0.00 | 1.37 | 0.23 | 99 | 1012.6 |
| 20260505191635 | 12 | 208 | 1.6 | 9.7 | 0.00 | 1.37 | 0.23 | 99 | 1012.6 |
| 20260505190611 | 12 | 150 | 1.6 | 12.9 | 0.00 | 1.37 | 0.23 | 99 | 1012.6 |
| 20260505185612 | 13 | 54 | 1.6 | 9.7 | 0.00 | 1.37 | 0.23 | 100 | 1012.4 |
| 20260505185100 | 13 | 102 | 1.6 | 8.0 | 0.00 | 1.37 | 0.23 | 100 | 1012.5 |
| 20260505183554 | 12 | 119 | 1.6 | 8.0 | 0.00 | 1.37 | 0.23 | 100 | 1012.4 |
| 20260505183055 | 12 | 148 | 1.6 | 6.4 | 0.00 | 1.37 | 0.23 | 100 | 1012.5 |
| 20260505181555 | 12 | 46 | 1.6 | 11.3 | 0.00 | 1.37 | 0.23 | 100 | 1012.3 |
| 20260505181056 | 12 | 194 | 1.6 | 9.7 | 0.00 | 1.37 | 0.23 | 100 | 1012.4 |
| 20260505175554 | 12 | 90 | 1.6 | 11.3 | 0.00 | 1.37 | 0.23 | 100 | 1012.3 |
| 20260505174548 | 11 | 65 | 1.6 | 6.4 | 0.00 | 1.37 | 0.23 | 100 | 1012.1 |
| 20260505173538 | 12 | 225 | 1.6 | 9.7 | 0.00 | 1.37 | 0.23 | 100 | 1012.1 |
| 20260505172541 | 11 | 244 | 1.6 | 14.5 | 0.00 | 1.37 | 0.23 | 100 | 1012.0 |
| 20260505171538 | 11 | 144 | 1.6 | 9.7 | 0.00 | 1.37 | 0.23 | 100 | 1012.0 |
| 20260505170540 | 11 | 102 | 1.6 | 6.4 | 0.00 | 1.37 | 0.23 | 100 | 1012.0 |
| 20260505165528 | 11 | 240 | 1.6 | 9.7 | 0.00 | 1.37 | 0.23 | 100 | 1012.0 |
| 20260505164524 | 11 | 46 | 1.6 | 9.7 | 0.00 | 1.37 | 0.23 | 100 | 1011.9 |